DW3471 Weather Reports


Display with metric or nautical units.
time (UTC)temp
F
wind
direction
speed
MPH
gust
MPH
rain 1hr
in
rain 24hr
in
rain mn
in
humidity
%
barometer
mb
20260502163723 58 289 4.0 6.0 0.00 0.00 0.00 51 1011.8
20260502162722 57 350 2.0 5.0 0.00 0.00 0.00 51 1012.2
20260502161722 56 341 2.0 7.0 0.00 0.00 0.00 51 1012.2
20260502160721 56 295 2.0 6.0 0.00 0.00 0.00 53 1012.5
20260502151718 55 307 4.0 8.0 0.00 0.00 0.00 63 1012.2
20260502150718 54 308 2.0 5.0 0.00 0.00 0.00 65 1012.1
20260502130608 50 288 2.0 5.0 0.00 0.00 0.00 77 1012.1
20260502123535 49 288 3.0 6.0 0.00 0.00 0.00 79 1012.1
20260502122534 49 288 3.0 7.0 0.00 0.00 0.00 79 1012.1
20260502121533 49 284 4.0 7.0 0.00 0.00 0.00 79 1012.1
20260502120502 49 293 2.0 4.0 0.00 0.00 0.00 80 1011.8
20260502115501 49 288 1.0 3.0 0.00 0.00 0.00 80 1011.8
20260502114500 49 348 2.0 5.0 0.00 0.00 0.00 80 1011.8
20260502113459 48 284 1.0 3.0 0.00 0.00 0.00 80 1011.8
20260502112459 48 49 2.0 3.0 0.00 0.00 0.00 80 1011.8
20260502111427 48 281 1.0 4.0 0.00 0.00 0.00 80 1011.8
20260502110426 47 294 2.0 5.0 0.00 0.00 0.00 81 1011.5
20260502105426 47 280 1.0 3.0 0.00 0.00 0.00 81 1011.5
20260502104425 47 279 0.0 3.0 0.00 0.00 0.00 81 1011.2
20260502103425 46 277 2.0 3.0 0.00 0.00 0.00 82 1011.2
20260502102424 46 304 0.0 0.0 0.00 0.00 0.00 82 1011.2
20260502101423 46 304 0.0 0.0 0.00 0.00 0.00 82 1011.2
20260502100423 47 304 0.0 0.0 0.00 0.00 0.00 81 1011.2
20260502091420 48 304 0.0 0.0 0.00 0.00 0.00 80 1011.2
20260502090420 48 304 0.0 0.0 0.00 0.00 0.00 80 1011.2
20260502071046 50 355 0.0 0.0 0.00 0.00 0.00 78 1011.2
20260502070045 50 355 0.0 0.0 0.00 0.00 0.00 78 1011.2
20260502065044 50 355 0.0 0.0 0.00 0.00 0.00 77 1011.3
20260502064013 51 355 0.0 1.0 0.00 0.00 0.00 77 1011.3
20260502063012 51 355 0.0 0.0 0.00 0.00 0.00 77 1011.3
20260502061940 51 355 0.0 0.0 0.00 0.00 0.00 76 1011.3
20260502060940 52 355 0.0 0.0 0.00 0.00 0.00 76 1011.3
20260502055939 52 355 0.0 0.0 0.00 0.00 0.00 75 1011.3
20260502054939 53 355 0.0 0.0 0.00 0.00 0.00 74 1011.6
20260502053938 53 355 0.0 0.0 0.00 0.00 0.00 73 1011.6
20260502052938 53 355 0.0 2.0 0.00 0.00 0.00 73 1011.9
20260502051937 53 22 1.0 1.0 0.00 0.00 0.00 73 1011.9
20260502050936 53 22 0.0 2.0 0.00 0.00 0.00 73 1011.6
20260502045936 53 22 0.0 2.0 0.00 0.00 0.00 72 1011.6
20260502044935 53 333 2.0 2.0 0.00 0.00 0.00 73 1011.6
20260502043934 53 329 2.0 3.0 0.00 0.00 0.00 74 1011.6
20260502042902 53 34 1.0 3.0 0.00 0.00 0.00 74 1011.2
20260502041902 53 340 2.0 4.0 0.00 0.00 0.00 74 1011.2
20260502040901 53 344 2.0 2.0 0.00 0.00 0.00 74 1011.2
20260502035901 54 342 0.0 0.0 0.00 0.00 0.00 74 1011.2
20260502034900 54 342 0.0 0.0 0.00 0.00 0.00 73 1011.2
20260502033900 54 342 0.0 0.0 0.00 0.00 0.00 72 1011.2
20260502032859 54 342 0.0 2.0 0.00 0.00 0.00 72 1010.9
20260502031858 54 342 1.0 3.0 0.00 0.00 0.00 70 1010.9
20260502030858 54 28 2.0 3.0 0.00 0.00 0.00 70 1010.9
20260502025857 54 5 0.0 2.0 0.00 0.00 0.00 68 1011.2
20260502024857 54 5 1.0 5.0 0.00 0.00 0.00 68 1011.2
20260502023856 54 329 1.0 1.0 0.00 0.00 0.00 67 1011.2
20260502022855 54 25 1.0 3.0 0.00 0.00 0.00 67 1011.2
20260502021855 54 261 1.0 6.0 0.00 0.00 0.00 64 1011.5
20260502020855 54 68 2.0 4.0 0.00 0.00 0.00 65 1011.5
20260502015854 54 260 1.0 2.0 0.00 0.00 0.00 64 1011.1
20260502014853 54 51 2.0 3.0 0.00 0.00 0.00 65 1011.1
20260502013853 54 30 0.0 3.0 0.00 0.00 0.00 64 1011.1
20260502012852 54 14 1.0 2.0 0.00 0.00 0.00 62 1011.1
20260502011851 54 287 0.0 0.0 0.00 0.00 0.00 61 1011.1
20260502010851 54 287 0.0 0.0 0.00 0.00 0.00 60 1010.7
20260502005850 55 287 0.0 0.0 0.00 0.00 0.00 60 1010.7
20260502004818 55 287 0.0 1.0 0.00 0.00 0.00 58 1010.7
20260502003818 55 287 0.0 1.0 0.00 0.00 0.00 59 1010.7
20260502002817 56 281 0.0 0.0 0.00 0.00 0.00 57 1010.3
20260502001816 56 281 0.0 0.0 0.00 0.00 0.00 57 1010.3
20260502000745 57 281 0.0 0.0 0.00 0.00 0.00 55 1010.3
20260501235713 58 281 0.0 1.0 0.00 0.00 0.00 54 1010.3
20260501234713 59 281 0.0 2.0 0.00 0.00 0.00 53 1010.0
20260501233712 60 281 0.0 1.0 0.00 0.00 0.00 52 1010.0
20260501232640 60 280 0.0 3.0 0.00 0.00 0.00 50 1010.0
20260501231640 61 50 1.0 3.0 0.00 0.00 0.00 48 1010.0
20260501230639 62 305 0.0 3.0 0.00 0.00 0.00 48 1010.0
20260501225638 62 38 1.0 2.0 0.00 0.00 0.00 47 1009.7
20260501224638 63 55 1.0 3.0 0.00 0.00 0.00 43 1009.7
20260501223606 64 319 1.0 4.0 0.00 0.00 0.00 45 1010.0
20260501222605 65 35 2.0 5.0 0.00 0.00 0.00 42 1010.1
20260501221605 65 285 2.0 5.0 0.00 0.00 0.00 41 1010.1
20260501220533 66 359 1.0 7.0 0.00 0.00 0.00 41 1010.1
20260501215532 67 67 2.0 4.0 0.00 0.00 0.00 38 1010.1
20260501214532 67 328 1.0 6.0 0.00 0.00 0.00 37 1010.1
20260501213500 66 299 1.0 4.0 0.00 0.00 0.00 39 1010.1
20260501212500 67 279 2.0 4.0 0.00 0.00 0.00 38 1010.1
20260501211428 67 303 2.0 3.0 0.00 0.00 0.00 38 1010.1
20260501210428 67 313 2.0 4.0 0.00 0.00 0.00 37 1010.1
20260501205427 67 297 2.0 6.0 0.00 0.00 0.00 38 1010.1
20260501204426 67 317 2.0 5.0 0.00 0.00 0.00 39 1010.1
20260501203426 65 101 1.0 5.0 0.00 0.00 0.00 39 1010.1
20260501202425 65 270 2.0 5.0 0.00 0.00 0.00 39 1010.1
20260501201424 67 302 2.0 5.0 0.00 0.00 0.00 39 1010.1
20260501200353 67 297 2.0 6.0 0.00 0.00 0.00 36 1010.1
20260501195352 67 241 2.0 7.0 0.00 0.00 0.00 36 1010.1
20260501194352 67 283 4.0 8.0 0.00 0.00 0.00 38 1010.5
20260501193351 68 46 2.0 5.0 0.00 0.00 0.00 38 1010.5
20260501192351 67 290 2.0 4.0 0.00 0.00 0.00 42 1010.5
20260501191350 66 281 2.0 3.0 0.00 0.00 0.00 40 1010.8
20260501190349 66 82 1.0 5.0 0.00 0.00 0.00 42 1011.2
20260501185349 66 275 2.0 4.0 0.00 0.00 0.00 40 1011.2
20260501184348 66 335 2.0 4.0 0.00 0.00 0.00 40 1011.5
20260501183347 66 295 2.0 4.0 0.00 0.00 0.00 38 1011.5
20260501182346 65 219 1.0 6.0 0.00 0.00 0.00 40 1011.5
20260501181346 65 314 1.0 4.0 0.00 0.00 0.00 41 1011.5
20260501180345 64 295 3.0 6.0 0.00 0.00 0.00 41 1011.5
20260501175344 63 177 2.0 7.0 0.00 0.00 0.00 40 1011.5
20260501174344 63 314 2.0 7.0 0.00 0.00 0.00 44 1011.5
20260501173343 63 304 2.0 5.0 0.00 0.00 0.00 42 1011.5